"startDT [UTC]","vpos","CH4 [ppm]","stdev(CH4) [ppm]","CO2 [ppm]","stdev(CO2) [ppm]","H2O_reported [%]","stdev(H2O_reported)","CavityPressure [torr]","CavityTemp [C]","OutletValve","CH4_dry [ppm]","CO2_dry [ppm]","DasTemp [C]","EtalonTemp [C]","WarmBoxTemp [C]","MPVPosition","T_ECpre [C]","T_EC1 [C]","T_EC2 [C]","p_inlet [hPa]","p_in [hPa]","p_out [hPa]","T_inlet [C]","RH_inlet [%]","dwpt_inlet [C]","T_vent [C]","RH_vent [%]","dwpt_vent [C]","flow_vent [l min-1]","flow_inlet [l min-1]","dwpt_sample [C]","T_room [C]"
2015-10-04 00:00:00,3.0,1.88039,0.01645,397.637,1.120,0.0960,0.1522,139.977,45.001,31514.76591,1.88417,398.127,36.885,45.068,45.000,0.00,0.09,-272.73,-272.80,-7,485,-943,21.9,14.0,-6.8,22.1,14.1,-6.5,5.73,1.71,-3.5,28.1
2015-10-04 00:01:00,3.0,1.87662,0.00042,396.990,0.042,0.0192,0.0018,139.996,45.001,31499.11144,1.87694,397.084,36.937,45.068,45.000,0.00,0.09,-272.74,-272.80,-7,484,-943,21.9,14.0,-6.8,22.1,14.1,-6.5,5.73,2.06,-3.5,28.1
2015-10-04 00:02:00,3.0,1.87665,0.00032,397.207,0.114,0.0193,0.0017,140.001,45.001,31495.17465,1.87700,397.292,36.969,45.068,45.000,0.00,0.09,-272.74,-272.80,-7,484,-943,21.9,14.0,-6.8,22.1,14.1,-6.6,5.73,1.73,-3.5,28.2
2015-10-04 00:03:00,3.0,1.87676,0.00042,397.456,0.033,0.0176,0.0024,140.001,45.001,31490.88391,1.87710,397.539,37.000,45.068,45.001,0.00,0.09,-272.75,-272.80,-8,484,-943,21.9,13.9,-6.9,22.1,14.1,-6.6,5.73,2.08,-3.5,28.2
2015-10-04 00:04:00,3.0,1.87684,0.00033,397.504,0.033,0.0139,0.0019,140.000,45.001,31489.94966,1.87710,397.570,37.011,45.068,45.001,0.00,0.09,-272.73,-272.80,-6,485,-943,22.0,13.9,-6.8,22.1,14.0,-6.7,5.73,1.70,-3.5,28.3
2015-10-04 00:05:00,3.0,1.87655,0.00032,397.498,0.030,0.0116,0.0020,140.001,45.001,31491.50700,1.87676,397.554,37.062,45.068,45.001,0.00,0.09,-272.75,-272.80,-8,485,-943,22.0,13.9,-6.9,22.2,14.0,-6.6,5.73,2.09,-3.5,28.4
2015-10-04 00:06:00,3.0,1.87655,0.00034,397.536,0.034,0.0088,0.0021,140.002,45.001,31491.54545,1.87673,397.579,37.063,45.068,45.001,0.00,0.09,-272.74,-272.81,-6,485,-943,22.0,13.9,-6.8,22.2,14.0,-6.6,5.73,1.70,-3.5,28.3
2015-10-04 00:07:00,3.0,1.87645,0.00038,397.529,0.027,0.0078,0.0020,140.000,45.000,31492.60825,1.87661,397.567,37.033,45.068,45.000,0.00,0.09,-272.74,-272.80,-8,485,-943,22.1,13.8,-6.8,22.2,14.0,-6.6,5.73,2.09,-3.5,28.4
2015-10-04 00:08:00,3.0,1.87646,0.00040,397.543,0.032,0.0066,0.0026,139.997,45.000,31490.47912,1.87655,397.574,36.958,45.067,44.999,0.00,0.09,-272.73,-272.81,-7,485,-943,22.1,13.8,-6.9,22.2,13.9,-6.7,5.73,1.69,-3.5,28.4
2015-10-04 00:09:00,3.0,1.87657,0.00036,397.545,0.024,0.0042,0.0019,139.999,44.999,31489.36021,1.87665,397.565,36.835,45.067,44.999,0.00,0.09,-272.75,-272.81,-7,485,-943,22.1,13.8,-6.9,22.3,13.9,-6.6,5.73,2.08,-3.4,28.4
2015-10-04 00:10:00,3.0,1.87665,0.00033,397.569,0.029,0.0047,0.0022,139.997,44.998,31485.53568,1.87674,397.591,36.662,45.066,44.998,0.00,0.09,-272.74,-272.80,-8,486,-942,22.1,13.8,-6.9,22.2,13.9,-6.6,5.73,1.82,-3.4,28.3
2015-10-04 00:11:00,3.0,1.87660,0.00029,397.586,0.034,0.0036,0.0015,139.997,44.997,31481.30327,1.87666,397.604,36.443,45.065,44.998,0.00,0.09,-272.74,-272.79,-7,486,-942,22.1,13.7,-6.9,22.2,13.9,-6.7,5.73,1.78,-3.5,28.2
2015-10-04 00:12:00,3.0,1.87666,0.00049,397.589,0.040,0.0031,0.0023,139.998,44.996,31473.75874,1.87676,397.604,36.209,45.065,44.997,0.00,0.09,-272.75,-272.80,-7,486,-941,22.1,13.8,-6.9,22.2,13.9,-6.7,5.73,2.05,-3.5,28.1
2015-10-04 00:13:00,3.0,1.87669,0.00040,397.601,0.031,0.0032,0.0016,140.000,44.996,31467.81267,1.87671,397.617,35.963,45.064,44.997,0.00,0.09,-272.74,-272.80,-8,487,-941,22.1,13.7,-6.9,22.2,13.9,-6.6,5.73,1.93,-3.4,28.0
2015-10-04 00:14:00,3.0,1.87707,0.00035,397.603,0.038,0.0027,0.0017,139.997,44.995,31456.77383,1.87710,397.616,35.717,45.065,44.997,0.00,0.09,-272.74,-272.80,-8,487,-941,22.1,13.7,-6.9,22.2,13.9,-6.7,5.73,1.72,-3.5,28.0
2015-10-04 00:15:00,3.0,1.87711,0.00038,397.596,0.023,0.0029,0.0020,140.000,44.995,31451.51419,1.87716,397.609,35.513,45.065,44.998,0.00,0.09,-272.74,-272.80,-8,487,-940,22.1,13.7,-6.9,22.2,13.9,-6.7,5.73,1.88,-3.5,27.9
2015-10-04 00:16:00,3.0,1.87710,0.00052,397.617,0.030,0.0032,0.0019,140.000,44.995,31444.91376,1.87716,397.632,35.321,45.066,44.998,0.00,0.09,-272.75,-272.80,-7,487,-940,22.0,13.8,-6.9,22.2,13.9,-6.6,5.73,2.08,-3.5,28.0
2015-10-04 00:17:00,3.0,1.87692,0.00036,397.591,0.027,0.0019,0.0020,140.000,44.996,31441.32862,1.87697,397.600,35.180,45.067,44.999,0.00,0.09,-272.73,-272.80,-7,487,-940,22.1,13.8,-6.9,22.2,14.0,-6.6,5.73,1.82,-3.4,27.9
2015-10-04 00:18:00,3.0,1.87685,0.00032,397.618,0.032,0.0016,0.0017,140.000,44.997,31437.86372,1.87686,397.626,35.085,45.067,45.000,0.00,0.09,-272.73,-272.80,-8,488,-940,22.1,13.8,-6.9,22.2,14.0,-6.6,5.73,1.78,-3.4,27.9
2015-10-04 00:19:00,3.0,1.87703,0.00028,397.608,0.029,0.0014,0.0017,140.002,44.998,31438.40267,1.87707,397.615,35.063,45.068,45.001,0.00,0.09,-272.75,-272.81,-7,488,-940,22.1,13.7,-6.9,22.2,13.9,-6.7,5.73,2.10,-3.5,27.9
2015-10-04 00:20:00,0.0,1.92490,0.01777,396.088,0.786,0.3828,0.1615,140.014,44.999,31687.70700,1.93026,397.912,35.092,45.069,45.002,0.00,0.09,-272.74,-272.81,-9,524,-939,22.1,13.7,-6.9,22.2,13.9,-6.6,5.73,1.80,-3.4,27.9
2015-10-04 00:21:00,0.0,1.93238,0.00096,395.605,0.046,0.4709,0.0026,139.998,45.000,31713.43861,1.94148,397.876,35.159,45.070,45.002,0.00,0.09,-272.74,-272.79,-9,525,-939,22.2,13.7,-6.9,22.2,13.9,-6.6,5.73,1.87,-3.4,27.9
2015-10-04 00:22:00,0.0,1.93130,0.00081,395.616,0.051,0.4726,0.0018,140.003,45.001,31723.90254,1.94041,397.896,35.244,45.070,45.002,0.00,0.09,-272.75,-272.81,-10,525,-940,22.2,13.6,-6.9,22.3,13.9,-6.6,5.73,2.12,-3.5,27.9
2015-10-04 00:23:00,0.0,1.93084,0.00090,395.612,0.030,0.4740,0.0020,140.000,45.001,31732.21104,1.93993,397.899,35.337,45.070,45.002,0.00,0.09,-272.74,-272.81,-8,525,-940,22.2,13.7,-6.9,22.3,13.9,-6.6,5.73,1.76,-3.5,27.9
2015-10-04 00:24:00,0.0,1.93144,0.00082,395.577,0.036,0.4767,0.0014,140.002,45.002,31741.61268,1.94071,397.879,35.449,45.069,45.001,0.00,0.09,-272.74,-272.79,-9,525,-940,22.3,13.7,-6.8,22.3,13.9,-6.6,5.73,1.96,-3.4,27.9
2015-10-04 00:25:00,0.0,1.93023,0.00064,395.489,0.038,0.4767,0.0014,140.000,45.002,31746.72693,1.93940,397.791,35.564,45.069,45.000,0.00,0.09,-272.74,-272.80,-10,526,-940,22.3,13.6,-6.9,22.3,13.8,-6.6,5.73,2.05,-3.4,28.0
2015-10-04 00:26:00,0.0,1.93233,0.00122,395.530,0.052,0.4778,0.0016,139.994,45.002,31749.78518,1.94152,397.833,35.664,45.068,45.000,0.00,0.09,-272.75,-272.81,-9,526,-940,22.3,13.6,-6.8,22.4,13.9,-6.6,5.73,1.73,-3.4,28.0
2015-10-04 00:27:00,0.0,1.93074,0.00050,395.510,0.039,0.4782,0.0019,140.000,45.002,31755.96319,1.93996,397.818,35.766,45.068,44.999,0.00,0.09,-272.75,-272.80,-9,526,-940,22.3,13.7,-6.8,22.4,13.9,-6.5,5.73,2.08,-3.5,28.0
2015-10-04 00:28:00,0.0,1.93059,0.00053,395.463,0.068,0.4802,0.0019,139.999,45.002,31761.12285,1.93986,397.781,35.862,45.067,44.999,0.00,0.09,-272.74,-272.80,-10,526,-940,22.4,13.7,-6.7,22.4,13.9,-6.5,5.73,1.91,-3.4,28.1
2015-10-04 00:29:00,0.0,1.93037,0.00045,395.496,0.030,0.4810,0.0019,140.000,45.002,31767.82619,1.93962,397.816,35.954,45.068,44.999,0.00,0.09,-272.74,-272.81,-9,527,-940,22.4,13.7,-6.8,22.4,13.9,-6.5,5.73,1.79,-3.4,28.1
2015-10-04 00:30:00,0.0,1.93230,0.00049,395.548,0.061,0.4814,0.0019,140.000,45.002,31772.32374,1.94153,397.872,36.040,45.068,45.000,0.00,0.09,-272.74,-272.80,-8,527,-940,22.4,13.7,-6.7,22.5,13.9,-6.5,5.73,2.13,-3.4,28.1
2015-10-04 00:31:00,0.0,1.93149,0.00050,395.470,0.028,0.4813,0.0015,140.002,45.001,31777.66601,1.94082,397.791,36.124,45.068,45.000,0.00,0.09,-272.73,-272.80,-10,526,-941,22.4,13.6,-6.8,22.5,13.9,-6.5,5.73,1.75,-3.4,28.2
2015-10-04 00:32:00,0.0,1.93127,0.00036,395.496,0.034,0.4809,0.0021,139.999,45.002,31781.32683,1.94056,397.817,36.200,45.068,45.000,0.00,0.09,-272.75,-272.80,-9,527,-941,22.4,13.6,-6.8,22.5,13.8,-6.5,5.73,2.00,-3.4,28.2
2015-10-04 00:33:00,0.0,1.93150,0.00074,395.476,0.039,0.4813,0.0016,140.001,45.001,31785.93365,1.94073,397.800,36.270,45.068,45.000,0.00,0.09,-272.74,-272.81,-8,527,-941,22.5,13.6,-6.7,22.5,13.8,-6.5,5.73,1.97,-3.4,28.3
2015-10-04 00:34:00,0.0,1.93291,0.00090,395.400,0.045,0.4810,0.0019,140.002,45.001,31791.59957,1.94217,397.721,36.331,45.068,45.000,0.00,0.09,-272.74,-272.80,-10,527,-941,22.5,13.6,-6.7,22.5,13.8,-6.5,5.73,1.77,-3.4,28.3
2015-10-04 00:35:00,0.0,1.93377,0.00055,395.392,0.047,0.4812,0.0018,139.997,45.001,31790.68848,1.94304,397.712,36.405,45.068,45.000,0.00,0.09,-272.74,-272.80,-9,527,-941,22.5,13.6,-6.8,22.6,13.8,-6.5,5.73,2.12,-3.4,28.3
2015-10-04 00:36:00,0.0,1.93530,0.00121,395.506,0.041,0.4826,0.0016,140.000,45.001,31793.71846,1.94459,397.832,36.467,45.068,45.001,0.00,0.09,-272.75,-272.81,-9,527,-941,22.5,13.6,-6.7,22.5,13.8,-6.5,5.73,1.73,-3.4,28.3
2015-10-04 00:37:00,0.0,1.93187,0.00055,395.413,0.052,0.4824,0.0010,139.997,45.001,31796.52220,1.94128,397.743,36.538,45.068,45.001,0.00,0.09,-272.75,-272.80,-10,527,-941,22.5,13.6,-6.7,22.6,13.8,-6.4,5.73,2.08,-3.4,28.4
2015-10-04 00:38:00,0.0,1.93397,0.00191,395.404,0.046,0.4827,0.0016,140.000,45.001,31800.02574,1.94316,397.732,36.568,45.068,45.001,0.00,0.09,-272.73,-272.80,-8,528,-941,22.5,13.6,-6.7,22.6,13.8,-6.5,5.73,1.84,-3.4,28.4
2015-10-04 00:39:00,0.0,1.93282,0.00091,395.358,0.037,0.4833,0.0013,140.000,45.001,31801.29416,1.94226,397.689,36.607,45.068,45.001,0.00,0.09,-272.74,-272.80,-9,527,-941,22.5,13.6,-6.7,22.6,13.8,-6.5,5.73,1.93,-3.4,28.4
2015-10-04 00:40:00,0.0,1.93143,0.00041,395.354,0.041,0.4815,0.0016,140.000,45.001,31804.13800,1.94074,397.678,36.620,45.068,45.000,0.00,0.09,-272.74,-272.80,-10,528,-941,22.5,13.6,-6.8,22.6,13.8,-6.5,5.73,2.00,-3.4,28.4
2015-10-04 00:41:00,0.0,1.93133,0.00042,395.329,0.027,0.4809,0.0014,140.002,45.001,31807.95707,1.94058,397.649,36.601,45.068,45.000,0.00,0.09,-272.73,-272.79,-8,528,-941,22.5,13.6,-6.7,22.6,13.7,-6.5,5.73,1.75,-3.4,28.5
2015-10-04 00:42:00,0.0,1.93126,0.00031,395.377,0.038,0.4830,0.0021,140.000,45.000,31808.15518,1.94060,397.706,36.536,45.068,45.000,0.00,0.09,-272.74,-272.80,-10,528,-941,22.4,13.6,-6.7,22.6,13.8,-6.5,5.73,2.11,-3.4,28.5
2015-10-04 00:43:00,0.0,1.93124,0.00031,395.339,0.042,0.4822,0.0013,140.000,44.999,31807.89834,1.94053,397.666,36.429,45.067,44.999,0.00,0.09,-272.74,-272.80,-10,528,-941,22.4,13.6,-6.8,22.6,13.8,-6.5,5.73,1.90,-3.4,28.4
2015-10-04 00:44:00,0.0,1.93151,0.00039,395.350,0.045,0.4816,0.0021,140.001,44.998,31806.29358,1.94080,397.674,36.245,45.066,44.998,0.00,0.09,-272.74,-272.79,-9,528,-941,22.3,13.6,-6.8,22.5,13.8,-6.5,5.73,1.76,-3.4,28.3
2015-10-04 00:45:00,0.0,1.93158,0.00040,395.351,0.036,0.4827,0.0016,139.999,44.997,31799.55949,1.94087,397.678,36.040,45.066,44.998,0.00,0.09,-272.73,-272.80,-9,528,-940,22.3,13.7,-6.8,22.5,13.8,-6.5,5.73,1.89,-3.4,28.2
2015-10-04 00:46:00,0.0,1.93150,0.00036,395.322,0.024,0.4831,0.0014,139.996,44.997,31793.85870,1.94079,397.652,35.824,45.065,44.997,0.00,0.09,-272.75,-272.81,-9,528,-940,22.3,13.7,-6.7,22.5,13.8,-6.5,5.73,2.03,-3.4,28.1
2015-10-04 00:47:00,0.0,1.93211,0.00065,395.358,0.035,0.4832,0.0018,140.000,44.996,31787.28383,1.94143,397.688,35.612,45.065,44.998,0.00,0.09,-272.74,-272.81,-9,528,-940,22.3,13.7,-6.8,22.4,13.8,-6.5,5.73,2.02,-3.4,28.0
2015-10-04 00:48:00,0.0,1.93238,0.00044,395.375,0.034,0.4820,0.0019,139.998,44.996,31775.82611,1.94169,397.700,35.424,45.066,44.998,0.00,0.09,-272.73,-272.80,-9,528,-939,22.3,13.7,-6.8,22.4,13.8,-6.6,5.73,1.88,-3.4,28.0
2015-10-04 00:49:00,0.0,1.93172,0.00031,395.335,0.024,0.4838,0.0020,140.000,44.996,31767.87714,1.94105,397.669,35.265,45.066,44.999,0.00,0.09,-272.74,-272.80,-10,528,-939,22.2,13.8,-6.8,22.3,13.9,-6.6,5.73,1.77,-3.4,28.0
2015-10-04 00:50:00,0.0,1.93180,0.00047,395.352,0.025,0.4857,0.0012,139.999,44.997,31762.39065,1.94115,397.694,35.155,45.067,45.000,0.00,0.09,-272.75,-272.80,-10,528,-939,22.1,13.9,-6.7,22.3,14.0,-6.5,5.73,1.88,-3.4,27.9
2015-10-04 00:51:00,0.0,1.93205,0.00040,395.368,0.032,0.4867,0.0015,140.000,44.997,31760.96843,1.94145,397.716,35.076,45.068,45.000,0.00,0.09,-272.75,-272.79,-9,527,-939,22.1,13.9,-6.7,22.2,14.0,-6.5,5.73,2.10,-3.4,27.8
2015-10-04 00:52:00,0.0,1.93223,0.00035,395.367,0.035,0.4878,0.0020,139.998,44.998,31758.08079,1.94162,397.721,35.069,45.069,45.001,0.00,0.09,-272.74,-272.80,-8,527,-939,22.1,14.0,-6.7,22.3,14.0,-6.5,5.73,1.88,-3.4,27.8
2015-10-04 00:53:00,0.0,1.93214,0.00036,395.373,0.040,0.4875,0.0015,140.001,45.000,31759.75603,1.94157,397.724,35.125,45.070,45.002,0.00,0.09,-272.75,-272.81,-10,527,-939,22.1,14.0,-6.7,22.3,14.1,-6.5,5.73,1.78,-3.4,27.8
2015-10-04 00:54:00,0.0,1.93218,0.00037,395.343,0.032,0.4871,0.0022,140.000,45.000,31760.31344,1.94157,397.694,35.190,45.070,45.002,0.00,0.09,-272.74,-272.80,-10,527,-939,22.0,14.0,-6.7,22.2,14.1,-6.5,5.73,2.11,-3.4,27.8
2015-10-04 00:55:00,0.0,1.93190,0.00029,395.340,0.028,0.4883,0.0025,140.003,45.001,31765.10229,1.94132,397.694,35.293,45.070,45.002,0.00,0.09,-272.73,-272.80,-8,527,-939,22.1,14.0,-6.6,22.3,14.1,-6.5,5.73,1.86,-3.4,27.8
2015-10-04 00:56:00,0.0,1.93223,0.00031,395.358,0.034,0.4903,0.0019,139.999,45.002,31764.91592,1.94169,397.723,35.404,45.070,45.002,0.00,0.09,-272.74,-272.80,-9,527,-939,22.0,14.1,-6.6,22.3,14.1,-6.4,5.73,1.82,-3.4,27.8
2015-10-04 00:57:00,0.0,1.93221,0.00027,395.363,0.036,0.4895,0.0017,139.998,45.002,31766.79665,1.94164,397.727,35.510,45.069,45.001,0.00,0.09,-272.75,-272.80,-10,527,-940,22.1,14.1,-6.6,22.3,14.1,-6.4,5.73,2.12,-3.4,27.9
2015-10-04 00:58:00,0.0,1.93193,0.00036,395.383,0.032,0.4895,0.0022,139.999,45.002,31769.51451,1.94140,397.744,35.610,45.069,45.001,0.00,0.09,-272.73,-272.80,-9,527,-940,22.1,14.0,-6.6,22.3,14.1,-6.4,5.73,1.76,-3.3,28.0
2015-10-04 00:59:00,0.0,1.93237,0.00051,395.375,0.028,0.4890,0.0028,139.997,45.002,31771.66049,1.94176,397.734,35.719,45.069,45.000,0.00,0.09,-272.74,-272.80,-9,526,-940,22.1,14.1,-6.6,22.3,14.1,-6.3,5.73,1.96,-3.4,28.0
2015-10-04 01:00:00,0.0,1.93300,0.00036,395.417,0.028,0.4869,0.0023,139.998,45.002,31772.45826,1.94242,397.767,35.807,45.068,45.000,0.00,0.09,-272.75,-272.81,-10,526,-940,22.1,14.0,-6.6,22.4,14.1,-6.3,5.73,2.03,-3.4,28.0
2015-10-04 01:01:00,0.0,1.93287,0.00046,395.399,0.032,0.4872,0.0018,139.997,45.002,31776.44138,1.94231,397.751,35.894,45.068,45.000,0.00,0.09,-272.73,-272.80,-9,527,-940,22.1,13.9,-6.7,22.3,14.1,-6.4,5.73,1.74,-3.4,28.0
2015-10-04 01:02:00,0.0,1.93282,0.00041,395.417,0.041,0.4875,0.0019,139.999,45.002,31782.02045,1.94220,397.768,35.978,45.068,45.000,0.00,0.09,-272.74,-272.80,-9,527,-940,22.1,14.0,-6.6,22.4,14.0,-6.4,5.73,2.12,-3.4,28.1
2015-10-04 01:03:00,0.0,1.93302,0.00026,395.424,0.030,0.4881,0.0017,140.001,45.002,31782.93927,1.94244,397.779,36.051,45.068,45.000,0.00,0.09,-272.74,-272.81,-10,527,-940,22.1,14.0,-6.7,22.3,14.1,-6.4,5.73,1.81,-3.4,28.0
2015-10-04 01:04:00,0.0,1.93286,0.00033,395.396,0.032,0.4878,0.0020,140.000,45.002,31785.11981,1.94226,397.750,36.130,45.068,45.000,0.00,0.09,-272.75,-272.80,-9,527,-941,22.1,14.0,-6.6,22.3,14.1,-6.4,5.73,1.94,-3.4,28.1
2015-10-04 01:05:00,0.0,1.93327,0.00039,395.459,0.057,0.4873,0.0019,139.999,45.001,31786.75487,1.94266,397.808,36.214,45.068,45.000,0.00,0.09,-272.74,-272.80,-9,526,-941,22.1,14.0,-6.7,22.3,14.1,-6.4,5.73,2.01,-3.3,28.1
2015-10-04 01:06:00,0.0,1.93363,0.00045,395.477,0.041,0.4875,0.0019,140.000,45.001,31787.45995,1.94303,397.831,36.286,45.068,45.000,0.00,0.09,-272.74,-272.80,-10,527,-941,22.1,14.0,-6.6,22.3,14.1,-6.4,5.73,1.76,-3.3,28.1
2015-10-04 01:07:00,0.0,1.93408,0.00036,395.489,0.053,0.4908,0.0023,139.998,45.001,31790.57937,1.94358,397.858,36.355,45.068,45.000,0.00,0.09,-272.75,-272.80,-8,527,-941,22.1,14.1,-6.5,22.3,14.1,-6.3,5.73,2.13,-3.4,28.1
2015-10-04 01:08:00,0.0,1.93340,0.00034,395.415,0.036,0.4928,0.0017,140.001,45.001,31794.47141,1.94292,397.792,36.420,45.068,45.000,0.00,0.09,-272.73,-272.80,-9,526,-941,22.1,14.1,-6.5,22.3,14.2,-6.3,5.73,1.74,-3.4,28.1
2015-10-04 01:09:00,0.0,1.93363,0.00038,395.554,0.073,0.4911,0.0024,139.999,45.001,31795.37866,1.94309,397.923,36.477,45.068,45.001,0.00,0.09,-272.74,-272.79,-10,527,-941,22.1,14.0,-6.6,22.4,14.1,-6.3,5.73,2.04,-3.3,28.1
2015-10-04 01:10:00,0.0,1.93375,0.00026,395.587,0.036,0.4909,0.0023,140.000,45.001,31796.79491,1.94325,397.957,36.491,45.068,45.000,0.00,0.09,-272.74,-272.81,-8,527,-941,22.1,14.0,-6.6,22.4,14.2,-6.3,5.73,1.93,-3.3,28.2
2015-10-04 01:11:00,0.0,1.93407,0.00039,395.651,0.061,0.4894,0.0022,139.999,45.001,31799.21698,1.94350,398.012,36.451,45.068,45.000,0.00,0.09,-272.74,-272.80,-9,527,-941,22.1,14.1,-6.6,22.3,14.1,-6.3,5.73,1.78,-3.3,28.2
2015-10-04 01:12:00,0.0,1.93408,0.00039,395.605,0.077,0.4890,0.0019,140.000,45.000,31800.58577,1.94353,397.967,36.369,45.067,45.000,0.00,0.09,-272.74,-272.80,-10,527,-941,22.1,14.1,-6.6,22.3,14.1,-6.4,5.73,2.09,-3.3,28.2
2015-10-04 01:13:00,0.0,1.93432,0.00026,395.614,0.103,0.4896,0.0021,140.000,44.999,31798.14021,1.94375,397.977,36.247,45.067,44.999,0.00,0.09,-272.74,-272.81,-9,527,-941,22.0,14.1,-6.6,22.3,14.2,-6.4,5.73,1.96,-3.3,28.1
2015-10-04 01:14:00,0.0,1.93400,0.00046,395.570,0.059,0.4879,0.0014,139.999,44.998,31793.49816,1.94347,397.926,36.085,45.066,44.998,0.00,0.09,-272.74,-272.81,-9,527,-940,22.0,14.1,-6.7,22.3,14.1,-6.4,5.73,1.77,-3.3,28.0
2015-10-04 01:15:00,0.0,1.93394,0.00042,395.594,0.057,0.4892,0.0027,140.001,44.997,31788.97352,1.94341,397.958,35.890,45.065,44.997,0.00,0.09,-272.73,-272.80,-9,527,-940,22.0,14.1,-6.6,22.2,14.2,-6.4,5.73,1.84,-3.3,27.9
2015-10-04 01:16:00,0.0,1.93396,0.00040,395.546,0.054,0.4909,0.0021,139.996,44.996,31778.51350,1.94337,397.915,35.693,45.065,44.997,0.00,0.09,-272.75,-272.80,-9,527,-939,22.0,14.2,-6.6,22.2,14.2,-6.4,5.73,1.98,-3.3,27.8
2015-10-04 01:17:00,0.0,1.93395,0.00048,395.502,0.075,0.4900,0.0017,139.997,44.996,31768.81646,1.94346,397.869,35.511,45.065,44.997,0.00,0.09,-272.75,-272.80,-9,527,-939,21.9,14.2,-6.6,22.1,14.2,-6.4,5.73,2.05,-3.3,27.8
2015-10-04 01:18:00,0.0,1.93413,0.00044,395.493,0.044,0.4902,0.0018,139.998,44.996,31760.38785,1.94357,397.860,35.336,45.065,44.998,0.00,0.09,-272.74,-272.81,-9,527,-939,21.9,14.2,-6.6,22.1,14.2,-6.4,5.73,1.97,-3.3,27.8
2015-10-04 01:19:00,0.0,1.93410,0.00032,395.467,0.039,0.4909,0.0019,140.000,44.996,31755.07961,1.94360,397.835,35.213,45.066,44.999,0.00,0.09,-272.74,-272.80,-10,527,-939,21.8,14.3,-6.6,22.1,14.3,-6.4,5.73,1.80,-3.3,27.6
2015-10-04 01:20:00,0.0,1.93407,0.00044,395.460,0.048,0.4927,0.0031,140.000,44.997,31749.16657,1.94356,397.838,35.146,45.067,44.999,0.00,0.09,-272.75,-272.80,-9,526,-939,21.8,14.4,-6.6,22.0,14.4,-6.3,5.73,1.82,-3.3,27.6
2015-10-04 01:21:00,0.0,1.93403,0.00040,395.481,0.065,0.4919,0.0022,140.000,44.998,31746.76667,1.94353,397.855,35.125,45.068,45.000,0.00,0.09,-272.74,-272.80,-8,526,-939,21.8,14.4,-6.6,22.0,14.4,-6.4,5.73,2.10,-3.3,27.6
2015-10-04 01:22:00,0.0,1.93399,0.00026,395.423,0.046,0.4924,0.0019,139.998,44.999,31745.86655,1.94350,397.798,35.162,45.069,45.001,0.00,0.09,-272.74,-272.79,-9,526,-939,21.8,14.4,-6.6,22.0,14.4,-6.4,5.73,1.93,-3.3,27.6
2015-10-04 01:23:00,0.0,1.93402,0.00035,395.463,0.039,0.4908,0.0021,140.001,45.000,31747.89006,1.94353,397.831,35.222,45.070,45.002,0.00,0.09,-272.74,-272.80,-10,526,-939,21.8,14.3,-6.6,22.0,14.4,-6.3,5.73,1.76,-3.4,27.6
2015-10-04 01:24:00,0.0,1.93400,0.00037,395.490,0.047,0.4901,0.0022,139.999,45.001,31750.42405,1.94346,397.855,35.293,45.070,45.002,0.00,0.09,-272.75,-272.81,-8,526,-939,21.8,14.3,-6.6,22.0,14.4,-6.4,5.73,2.11,-3.3,27.6
2015-10-04 01:25:00,0.0,1.93384,0.00040,395.552,0.030,0.4909,0.0020,139.998,45.001,31752.59545,1.94333,397.921,35.362,45.070,45.002,0.00,0.09,-272.73,-272.80,-8,526,-939,21.8,14.3,-6.6,22.1,14.3,-6.4,5.73,1.88,-3.3,27.6
2015-10-04 01:26:00,0.0,1.93399,0.00031,395.568,0.059,0.4915,0.0019,139.999,45.002,31757.50955,1.94345,397.941,35.447,45.070,45.002,0.00,0.09,-272.74,-272.80,-9,526,-939,21.9,14.3,-6.5,22.0,14.3,-6.4,5.73,1.81,-3.4,27.7
2015-10-04 01:27:00,0.0,1.93401,0.00049,395.581,0.041,0.4934,0.0022,139.998,45.002,31759.52157,1.94356,397.963,35.532,45.070,45.001,0.00,0.09,-272.74,-272.81,-9,526,-940,21.9,14.4,-6.5,22.1,14.4,-6.3,5.73,2.13,-3.3,27.8
2015-10-04 01:28:00,0.0,1.93422,0.00042,395.540,0.040,0.4953,0.0015,139.997,45.002,31762.01435,1.94377,397.931,35.628,45.069,45.001,0.00,0.09,-272.73,-272.81,-8,526,-940,21.9,14.4,-6.5,22.1,14.4,-6.3,5.73,1.75,-3.3,27.8
2015-10-04 01:29:00,0.0,1.93437,0.00034,395.591,0.055,0.4973,0.0035,140.001,45.002,31764.15727,1.94399,397.993,35.721,45.069,45.001,0.00,0.09,-272.74,-272.80,-9,525,-940,21.9,14.5,-6.4,22.1,14.5,-6.2,5.73,1.99,-3.3,27.8
2015-10-04 01:30:00,0.0,1.93425,0.00058,395.445,0.054,0.5070,0.0025,139.997,45.002,31765.57393,1.94403,397.895,35.818,45.069,45.001,0.00,0.09,-272.75,-272.81,-9,526,-940,21.9,14.8,-6.1,22.1,14.7,-6.0,5.73,2.00,-3.3,27.9
2015-10-04 01:31:00,0.0,1.93434,0.00032,395.456,0.053,0.5038,0.0020,139.999,45.002,31768.70896,1.94408,397.886,35.914,45.069,45.001,0.00,0.09,-272.75,-272.80,-8,526,-940,21.9,14.6,-6.3,22.2,14.7,-5.9,5.73,1.75,-3.3,27.8
2015-10-04 01:32:00,0.0,1.93451,0.00036,395.528,0.044,0.5004,0.0022,139.999,45.002,31768.86594,1.94415,397.945,36.011,45.068,45.000,0.00,0.09,-272.74,-272.79,-9,526,-940,21.9,14.6,-6.3,22.1,14.6,-6.1,5.73,2.13,-3.3,27.8
2015-10-04 01:33:00,0.0,1.93444,0.00035,395.483,0.040,0.5038,0.0019,140.000,45.002,31772.04597,1.94422,397.916,36.108,45.068,45.000,0.00,0.09,-272.74,-272.81,-9,526,-940,21.9,14.6,-6.2,22.1,14.7,-6.0,5.73,1.78,-3.3,27.8
2015-10-04 01:34:00,0.0,1.93412,0.00046,395.396,0.067,0.5048,0.0019,140.001,45.002,31775.87401,1.94387,397.834,36.185,45.068,45.000,0.00,0.09,-272.75,-272.80,-8,526,-940,21.9,14.6,-6.2,22.1,14.7,-6.0,5.73,1.97,-3.3,27.9
2015-10-04 01:35:00,0.0,1.93431,0.00032,395.428,0.057,0.5004,0.0023,139.997,45.001,31776.77780,1.94398,397.846,36.248,45.068,45.000,0.00,0.09,-272.74,-272.80,-10,526,-941,21.9,14.5,-6.3,22.2,14.6,-6.0,5.73,2.00,-3.3,27.9
2015-10-04 01:36:00,0.0,1.93418,0.00046,395.372,0.036,0.5039,0.0018,140.001,45.001,31780.85619,1.94392,397.803,36.273,45.068,45.000,0.00,0.09,-272.74,-272.80,-9,526,-941,22.0,14.6,-6.2,22.2,14.6,-6.0,5.73,1.75,-3.3,27.9
2015-10-04 01:37:00,0.0,1.93407,0.00039,395.396,0.039,0.5044,0.0014,140.000,45.001,31782.57721,1.94380,397.832,36.297,45.068,45.000,0.00,0.09,-272.75,-272.80,-8,526,-941,21.9,14.6,-6.2,22.2,14.7,-6.0,5.73,2.11,-3.3,28.0
2015-10-04 01:38:00,0.0,1.93335,0.00050,395.266,0.074,0.5096,0.0031,139.999,45.001,31782.95862,1.94320,397.726,36.249,45.067,44.999,0.00,0.09,-272.74,-272.80,-9,526,-941,21.9,14.8,-6.1,22.1,14.8,-5.9,5.73,1.87,-3.3,28.0
2015-10-04 01:39:00,0.0,1.93323,0.00050,395.240,0.076,0.5095,0.0020,139.997,45.000,31781.33310,1.94308,397.698,36.148,45.067,44.999,0.00,0.09,-272.74,-272.80,-9,526,-940,21.9,14.8,-6.1,22.1,14.9,-5.9,5.73,1.77,-3.3,27.9
2015-10-04 01:40:00,0.0,1.93382,0.00043,395.331,0.045,0.5050,0.0024,139.999,44.999,31781.00022,1.94357,397.768,35.976,45.066,44.998,0.00,0.09,-272.75,-272.81,-9,527,-940,21.9,14.7,-6.2,22.1,14.8,-5.9,5.73,2.00,-3.3,27.8
2015-10-04 01:41:00,0.0,1.93369,0.00051,395.349,0.052,0.5024,0.0018,139.999,44.998,31777.13682,1.94341,397.774,35.786,45.066,44.998,0.00,0.32,-270.94,-271.61,-8,527,-940,21.9,14.6,-6.2,22.1,14.7,-6.1,5.42,2.21,-9.5,27.8
2015-10-04 01:42:00,0.0,1.93387,0.00039,395.331,0.046,0.5027,0.0020,140.000,44.997,31770.56369,1.94357,397.757,35.595,45.066,44.998,0.00,0.09,-272.74,-272.80,-8,527,-939,21.9,14.6,-6.3,22.1,14.7,-6.0,5.73,1.94,-3.3,27.7
2015-10-04 01:43:00,0.0,1.93421,0.00036,395.325,0.042,0.5024,0.0019,139.997,44.996,31760.52750,1.94390,397.750,35.410,45.066,44.998,0.00,0.09,-272.74,-272.81,-9,526,-939,21.9,14.6,-6.3,22.0,14.7,-6.1,5.73,1.82,-3.3,27.6
2015-10-04 01:44:00,0.0,1.93441,0.00038,395.517,0.132,0.4992,0.0018,139.996,44.996,31752.96378,1.94407,397.921,35.237,45.066,44.998,0.00,0.09,-272.75,-272.80,-9,526,-939,21.8,14.5,-6.4,22.0,14.7,-6.1,5.73,1.80,-3.3,27.6
2015-10-04 01:45:00,0.0,1.93470,0.00042,395.566,0.114,0.4963,0.0016,140.000,44.996,31746.73211,1.94425,397.967,35.084,45.066,44.999,0.00,0.09,-272.75,-272.80,-9,526,-938,21.8,14.4,-6.5,21.9,14.6,-6.2,5.73,1.93,-3.3,27.6